[TLELIST] Archives

 

[list_settings.list_name] Current TLEs

January 31st 2010 PST

HST 1 20580U 90037B 10028.21046764 .00000421 00000-0 19433-4 0 5105 2 20580 028.4700 073.5965 0003596 151.8346 208.2442 15.00884921883698 ISS (ZARYA) 1 25544U 98067A 10030.37081978 .00012345 00000-0 83298-4 0 4788 2 25544 051.6440 218.3853 0010913 260.8255 168.4437 15.75503746641764 CXO 1 25867U 99040B 10 26.33871883 .00000000 00000-0 10000-3 0 4225 2 25867 066.4395 060.2713 7928771 275.2674 008.5168 00.37820665 5859 ____________________________________________________________________ These 2-Line ...Continue Reading

[list_settings.list_name] Current TLEs

January 30th 2010 PST

HST 1 20580U 90037B 10028.21046764 .00000421 00000-0 19433-4 0 5105 2 20580 028.4700 073.5965 0003596 151.8346 208.2442 15.00884921883698 ISS (ZARYA) 1 25544U 98067A 10029.34410880 .00013838 00000-0 92921-4 0 4704 2 25544 051.6434 223.6674 0010990 256.7256 105.3616 15.75482107641606 CXO 1 25867U 99040B 10 26.33871883 .00000000 00000-0 10000-3 0 4225 2 25867 066.4395 060.2713 7928771 275.2674 008.5168 00.37820665 5859 ____________________________________________________________________ These 2-Line ...Continue Reading

[list_settings.list_name] Current TLEs

January 29th 2010 PST

HST 1 20580U 90037B 10028.21046764 .00000421 00000-0 19433-4 0 5105 2 20580 028.4700 073.5965 0003596 151.8346 208.2442 15.00884921883698 ISS (ZARYA) 1 25544U 98067A 10028.26350694 .00014548 00000-0 97587-4 0 4634 2 25544 051.6439 229.2290 0010952 252.2142 096.9175 15.75453950641429 CXO 1 25867U 99040B 10028.87500000 -.00000289 00000-0 10000-3 0 4215 2 25867 066.4508 060.1648 7935500 275.2174 353.8915 00.37802024 5860 ____________________________________________________________________ These 2-Line ...Continue Reading

[list_settings.list_name] Current TLEs

January 28th 2010 PST

HST 1 20580U 90037B 10026.54805451 .00000429 00000-0 20040-4 0 5097 2 20580 028.4698 084.4511 0003518 138.5221 221.5624 15.00884058883444 ISS (ZARYA) 1 25544U 98067A 10027.37989583 .00015018 00000-0 10071-3 0 4578 2 25544 051.6442 233.7765 0010949 248.3854 125.8908 15.75428531641290 CXO 1 25867U 99040B 10026.25000000 -.00000278 00000-0 10000-3 0 4207 2 25867 066.4478 060.2760 7928411 275.2581 356.4306 00.37796094 5858 ____________________________________________________________________ These 2-Line ...Continue Reading

[list_settings.list_name] Current TLEs

January 27th 2010 PST

HST 1 20580U 90037B 10023.62220529 .00000424 00000-0 19702-4 0 5087 2 20580 028.4698 103.5431 0003519 107.4246 252.6780 15.00882601883003 ISS (ZARYA) 1 25544U 98067A 10026.43892120 .00017874 00000-0 11912-3 0 4515 2 25544 051.6436 238.6183 0011048 244.6498 189.3082 15.75405942641148 CXO 1 25867U 99040B 10026.25000000 -.00000278 00000-0 10000-3 0 4207 2 25867 066.4478 060.2760 7928411 275.2581 356.4306 00.37796094 5858 ____________________________________________________________________ These 2-Line ...Continue Reading

[list_settings.list_name] Current TLEs

January 26th 2010 PST

HST 1 20580U 90037B 10023.62220529 .00000424 00000-0 19702-4 0 5087 2 20580 028.4698 103.5431 0003519 107.4246 252.6780 15.00882601883003 ISS (ZARYA) 1 25544U 98067A 10025.34586806 .00034917 00000-0 22847-3 0 4443 2 25544 051.6427 244.2440 0010894 239.4577 111.1966 15.75381185640960 CXO 1 25867U 99040B 10026.25000000 -.00000278 00000-0 10000-3 0 4207 2 25867 066.4478 060.2760 7928411 275.2581 356.4306 00.37796094 5858 ____________________________________________________________________ These 2-Line ...Continue Reading

[list_settings.list_name] Current TLEs

January 25th 2010 PST

HST 1 20580U 90037B 10023.62220529 .00000424 00000-0 19702-4 0 5087 2 20580 028.4698 103.5431 0003519 107.4246 252.6780 15.00882601883003 ISS (ZARYA) 1 25544U 98067A 10024.53773799 .00592068 00000-0 35663-2 0 4368 2 25544 051.6436 248.4085 0011118 248.4193 195.9966 15.75388454640848 CXO 1 25867U 99040B 10023.62500000 -.00000181 00000-0 10000-3 0 4191 2 25867 066.4329 060.4080 7927775 275.2758 359.0089 00.37805146 5843 ____________________________________________________________________ These 2-Line ...Continue Reading

[list_settings.list_name] Current TLEs

January 24th 2010 PST

HST 1 20580U 90037B 10020.69635005 .00000378 00000-0 16145-4 0 5075 2 20580 028.4693 122.6396 0003374 077.4179 282.6819 15.00880828882565 ISS (ZARYA) 1 25544U 98067A 10023.38114583 .00044984 00000-0 27218-3 0 4288 2 25544 051.6425 254.3687 0004355 197.8584 156.5202 15.77110456640658 CXO 1 25867U 99040B 10023.62500000 -.00000181 00000-0 10000-3 0 4191 2 25867 066.4329 060.4080 7927775 275.2758 359.0089 00.37805146 5843 ____________________________________________________________________ These 2-Line ...Continue Reading

[list_settings.list_name] Current TLEs

January 23rd 2010 PST

HST 1 20580U 90037B 10020.69635005 .00000378 00000-0 16145-4 0 5075 2 20580 028.4693 122.6396 0003374 077.4179 282.6819 15.00880828882565 ISS (ZARYA) 1 25544U 98067A 10022.19437620 .00014443 00000-0 88205-4 0 4209 2 25544 051.6443 260.4856 0006862 213.4959 238.0746 15.77658779640474 CXO 1 25867U 99040B 10020.95833333 -.00000135 00000-0 10000-3 0 4180 2 25867 066.4162 060.5648 7926075 275.2512 356.0076 00.37808043 5830 ____________________________________________________________________ These 2-Line ...Continue Reading

[list_settings.list_name] Current TLEs

January 22nd 2010 PST

HST 1 20580U 90037B 10020.69635005 .00000378 00000-0 16145-4 0 5075 2 20580 028.4693 122.6396 0003374 077.4179 282.6819 15.00880828882565 ISS (ZARYA) 1 25544U 98067A 10021.18990116 .00012826 00000-0 78912-4 0 4130 2 25544 051.6455 265.6705 0006924 208.3400 294.4268 15.77622597640317 CXO 1 25867U 99040B 10020.95833333 -.00000135 00000-0 10000-3 0 4180 2 25867 066.4162 060.5648 7926075 275.2512 356.0076 00.37808043 5830 ____________________________________________________________________ These 2-Line ...Continue Reading
  • This mailing list is a public mailing list - anyone may join or leave, at any time.
  • This mailing list is announce-only.

International Space Station (ISS) / Hubble Space Telescope (HST) / Chandra X-Ray Observatory Orbital Data via EMAIL

Privacy Policy:

Private list